Location: The Saddle
(36.8333°N, 80.3417°W)
Time: 20:20:02
(UTC-05:00)

Tiros 1 despin weight - All Passes

Search period start: 03 December 2023 00:00
Search period end: 13 December 2023 00:00
Orbit: 583 x 628 km, 48.2° (Epoch: 28 November)

Date Brightness Start Highest point End Pass type
(mag) Time Alt. Az. Time Alt. Az. Time Alt. Az.
03 Dec - 01:02:04 10° NW 01:06:27 80° NE 01:10:53 10° ESE night (unlit)
03 Dec - 02:44:28 10° W 02:47:17 17° SW 02:50:07 10° S night (unlit)
03 Dec - 16:48:10 10° SSE 16:50:19 13° SE 16:52:28 10° E daylight
03 Dec - 18:26:41 10° SW 18:31:02 88° SSE 18:35:24 10° NE visible
03 Dec - 20:09:04 10° WNW 20:12:42 25° NNW 20:16:21 10° NE visible
03 Dec - 21:52:01 10° NW 21:55:03 18° N 21:58:07 10° NE night (unlit)
03 Dec - 23:33:20 10° NW 23:37:17 32° NNE 23:41:16 10° E night (unlit)
04 Dec - 01:14:26 10° WNW 01:18:43 56° SW 01:23:03 10° SE night (unlit)
04 Dec - 16:58:41 10° SSW 17:02:20 26° SE 17:05:59 10° ENE daylight
04 Dec - 18:39:07 10° WSW 18:43:23 53° NNW 18:47:39 10° NE visible
04 Dec - 20:22:04 10° WNW 20:25:21 20° N 20:28:38 10° NE visible
04 Dec - 22:04:31 10° NW 22:07:46 20° N 22:11:01 10° ENE night (unlit)
04 Dec - 23:45:31 10° NW 23:49:46 49° NNE 23:54:02 10° ESE night (unlit)
05 Dec - 01:27:03 10° WNW 01:30:51 29° SW 01:34:42 10° SSE night (unlit)
05 Dec - 17:10:13 10° SW 17:14:27 51° SE 17:18:41 10° ENE daylight
05 Dec - 18:51:51 10° W 18:55:50 34° NNW 18:59:49 10° NE visible
05 Dec - 20:34:58 10° NW 20:38:02 18° N 20:41:05 10° NE visible
05 Dec - 22:16:48 10° NW 22:20:24 25° NNE 22:24:01 10° ENE night (unlit)
05 Dec - 23:57:43 10° NW 00:02:06 85° NNE 00:06:31 10° SE night (unlit)
06 Dec - 01:40:21 10° W 01:42:53 15° SW 01:45:27 10° SSW night (unlit)
06 Dec - 15:43:25 10° SSE 15:45:54 15° SE 15:48:22 10° E daylight
06 Dec - 17:22:17 10° SW 17:26:40 86° NW 17:31:02 10° NE daylight
06 Dec - 19:04:46 10° WNW 19:08:22 25° NNW 19:11:58 10° NE visible
06 Dec - 20:47:41 10° NW 20:50:44 18° N 20:53:47 10° NE visible
06 Dec - 22:28:57 10° NW 22:32:57 34° NNE 22:36:56 10° E night (unlit)
07 Dec - 00:10:04 10° WNW 00:14:19 51° SW 00:18:35 10° SE night (unlit)
07 Dec - 15:54:07 10° SSW 15:57:55 29° SE 16:01:40 10° ENE daylight
07 Dec - 17:34:44 10° WSW 17:38:59 50° NNW 17:43:14 10° NE visible
07 Dec - 19:17:44 10° WNW 19:20:59 20° N 19:24:14 10° NE visible
07 Dec - 21:00:07 10° NW 21:03:24 20° N 21:06:41 10° ENE night (unlit)
07 Dec - 22:41:05 10° NW 22:45:22 53° NNE 22:49:39 10° ESE night (unlit)
08 Dec - 00:22:43 10° WNW 00:26:25 27° SW 00:30:07 10° SSE night (unlit)
08 Dec - 16:05:42 10° SW 16:10:00 55° SE 16:14:17 10° ENE daylight
08 Dec - 17:47:28 10° W 17:51:25 32° NNW 17:55:21 10° NE visible
08 Dec - 19:30:36 10° NW 19:33:39 18° N 19:36:41 10° NE visible
08 Dec - 21:12:21 10° NW 21:16:00 25° NNE 21:19:39 10° ENE night (unlit)
08 Dec - 22:53:17 10° NW 22:57:39 89° SW 23:02:02 10° SE night (unlit)
09 Dec - 00:36:09 10° W 00:38:23 14° SW 00:40:37 10° SSW night (unlit)
09 Dec - 14:38:37 10° S 14:41:23 16° SE 14:44:08 10° E daylight
09 Dec - 16:17:48 10° WSW 16:22:12 80° NNW 16:26:34 10° NE daylight
09 Dec - 18:00:22 10° WNW 18:03:56 24° NNW 18:07:30 10° NE visible
09 Dec - 19:43:14 10° NW 19:46:18 18° N 19:49:22 10° NE visible
09 Dec - 21:24:28 10° NW 21:28:29 35° NNE 21:32:31 10° E night (unlit)
09 Dec - 23:05:38 10° WNW 23:09:50 47° SW 23:14:01 10° SSE night (unlit)
10 Dec - 14:49:27 10° SSW 14:53:22 31° SE 14:57:15 10° ENE daylight
10 Dec - 16:30:15 10° WSW 16:34:30 47° NNW 16:38:44 10° NE daylight
10 Dec - 18:13:18 10° WNW 18:16:32 20° N 18:19:44 10° NE visible
10 Dec - 19:55:37 10° NW 19:58:56 21° NNE 20:02:15 10° ENE visible
10 Dec - 21:36:34 10° NW 21:40:51 56° NNE 21:45:08 10° ESE night (unlit)
10 Dec - 23:18:18 10° W 23:21:52 25° SW 23:25:25 10° S night (unlit)
11 Dec - 15:01:05 10° SW 15:05:27 60° SE 15:09:46 10° ENE daylight
11 Dec - 16:42:58 10° W 16:46:54 31° NNW 16:50:49 10° NE daylight
11 Dec - 18:26:07 10° NW 18:29:09 18° N 18:32:11 10° NE visible
11 Dec - 20:07:47 10° NW 20:11:29 26° NNE 20:15:10 10° ENE visible
11 Dec - 21:48:45 10° WNW 21:53:07 83° SW 21:57:28 10° SE night (unlit)
11 Dec - 23:31:56 10° WSW 23:33:47 12° SW 23:35:39 10° SSW night (unlit)
12 Dec - 13:33:47 10° S 13:36:46 18° SE 13:39:45 10° E daylight
12 Dec - 15:13:12 10° WSW 15:17:38 75° NNW 15:22:01 10° NE daylight
12 Dec - 16:55:51 10° WNW 16:59:24 23° NNW 17:02:56 10° NE daylight
12 Dec - 18:38:41 10° NW 18:41:47 19° N 18:44:52 10° NE visible
12 Dec - 20:19:53 10° NW 20:23:56 37° NNE 20:27:59 10° E visible
12 Dec - 22:01:06 10° WNW 22:05:13 43° SW 22:09:22 10° SSE night (unlit)
